GFSSE_con_3kmhel_102.txt.gz
Helicity
43 139 150 136 111 91 67 45 36 46 96 117 107 107 119 130 148 158 147 114 104 79 80 72 63 57 67 62 43 46 48 42 41 56 61 60 52 53 52 27 -11 46 38
60 140 144 129 121 105 90 75 61 54 84 99 99 102 109 111 143 149 147 121 110 91 74 71 69 62 67 62 61 54 54 57 60 60 72 60 62 56 46 6 -25 69 46
24 115 146 133 127 116 111 105 81 71 84 101 95 100 100 103 124 134 141 120 106 94 96 78 66 56 59 70 73 65 64 71 69 72 41 33 55 55 41 59 104 63 49
12 92 147 143 137 139 131 128 111 93 96 96 108 113 110 113 123 130 147 124 103 95 97 82 66 64 61 72 72 68 72 64 69 55 9 37 72 57 55 65 72 53 55
-16 50 116 154 161 170 151 140 131 110 112 116 121 138 125 124 132 132 145 136 113 96 91 79 71 73 69 74 75 69 67 71 71 17 36 42 59 61 63 60 54 48 28
-16 8 98 123 176 181 167 154 127 114 116 128 146 155 135 125 143 144 147 137 118 109 84 69 67 72 79 84 80 85 79 80 51 28 43 70 46 66 76 50 67 61 78
-1 6 35 78 111 168 154 132 118 114 122 131 150 169 160 138 146 158 148 140 119 107 89 70 80 83 76 92 98 94 95 76 10 42 43 47 56 79 63 71 81 70 85
2 30 43 68 79 100 129 128 120 117 115 121 137 147 159 155 162 161 149 121 124 105 93 89 89 90 81 93 98 100 99 62 19 35 44 39 80 89 73 74 81 89 95
6 34 68 95 85 100 107 120 119 116 108 109 120 142 144 158 162 154 141 121 110 94 83 89 101 105 85 80 96 108 98 55 42 58 30 17 110 73 70 78 83 100 100
23 37 79 122 119 91 68 94 105 104 101 105 114 123 130 137 135 138 147 132 104 97 87 94 104 101 90 78 83 92 91 69 33 56 71 42 107 54 66 80 83 100 101
93 42 99 128 141 138 93 72 96 95 99 107 99 124 128 102 100 111 107 160 115 110 101 93 105 103 93 87 83 91 100 57 74 58 136 136 64 56 60 76 88 107 111
96 46 63 114 144 143 130 121 90 84 80 76 75 110 103 82 84 87 107 133 146 127 115 100 98 106 100 62 85 93 57 64 64 81 137 129 28 56 54 63 97 110 111
115 74 47 52 78 91 106 115 150 139 110 94 66 91 95 82 90 103 106 110 109 125 106 108 101 78 81 64 73 88 62 55 59 88 70 122 22 63 85 45 73 85 113
131 94 74 51 45 55 81 92 117 145 131 122 114 115 121 115 88 96 106 105 111 130 93 102 103 92 81 66 62 72 60 47 82 78 82 134 84 66 66 19 87 84 103
109 109 100 61 54 56 50 75 101 110 111 99 108 111 131 122 125 102 103 102 120 109 123 127 124 107 91 73 62 72 77 53 83 93 81 126 98 70 56 29 76 83 92
121 140 129 98 66 60 51 49 78 103 92 127 122 130 125 120 114 152 162 128 103 129 152 128 151 117 95 82 82 99 81 55 80 92 91 82 115 80 62 56 78 75 71
121 124 99 92 92 66 66 56 43 63 85 100 106 131 144 147 129 146 165 154 151 135 154 132 167 143 112 108 101 110 82 86 83 87 108 110 120 80 80 53 89 78 67
129 142 140 117 118 108 66 75 60 79 81 80 91 126 121 164 143 164 172 157 189 192 169 148 194 206 170 111 103 106 92 89 94 99 103 99 113 36 105 127 77 61 60
121 122 116 122 137 147 118 89 88 85 120 104 100 101 112 173 178 206 195 156 190 210 165 152 190 204 179 119 95 96 76 93 101 105 163 90 87 37 96 31 78 70 54
86 104 125 113 121 135 145 122 118 113 134 121 127 112 106 168 217 216 209 203 199 199 166 157 155 175 161 132 139 127 87 90 100 97 160 139 37 -3 84 79 52 57 59
63 70 105 137 131 117 153 190 136 123 103 138 176 135 122 156 205 228 233 230 197 192 197 168 168 176 187 176 213 192 162 96 99 108 94 48 5 57 168 58 77 74 90
59 67 81 90 158 132 132 111 181 112 115 126 153 183 143 169 195 236 265 256 196 203 191 173 164 226 213 214 281 262 181 160 97 96 78 16 64 75 87 123 53 55 74
60 94 92 103 132 195 122 107 132 157 125 125 149 173 146 181 195 260 253 271 208 183 188 158 171 194 262 248 241 239 211 178 180 136 79 69 70 72 97 84 147 90 67
25 49 89 117 135 97 128 109 90 150 76 104 127 215 214 225 247 246 279 308 238 215 174 150 154 153 189 252 255 189 142 162 164 156 149 61 41 36 52 102 133 147 122
13 39 31 93 115 113 79 94 108 127 108 105 113 157 228 263 291 239 293 249 224 187 179 154 124 112 179 245 285 272 175 149 124 105 171 188 160 91 100 145 138 169 181
15 24 38 70 73 75 107 74 78 133 107 90 90 145 216 273 322 221 236 342 292 325 247 199 153 120 168 212 250 244 166 206 152 162 135 121 158 172 160 196 243 238 233

GFSSE_con_3kmhel_105.txt.gz
Helicity
50 73 141 107 97 75 66 52 54 53 60 52 63 69 83 85 88 99 101 91 80 76 63 58 57 56 46 35 35 42 40 46 58 75 71 71 60 59 47 20 -7 63 47
68 62 168 125 98 73 69 57 55 63 71 65 63 72 86 87 89 92 98 91 77 66 59 55 51 47 46 42 35 41 51 51 45 55 63 59 56 51 26 3 -16 86 55
36 66 85 121 114 94 78 70 66 66 77 75 81 83 86 94 98 99 95 92 70 53 63 60 54 56 47 44 49 53 55 56 51 51 25 26 50 48 43 50 88 91 63
38 34 29 89 101 109 95 85 75 77 72 83 86 92 103 96 92 87 94 94 73 53 61 59 48 46 48 50 56 62 64 60 52 26 2 -5 68 51 48 71 76 82 61
29 11 18 92 79 106 119 106 92 84 81 90 99 102 117 125 112 101 100 96 71 66 73 56 46 48 51 51 57 62 69 62 39 14 13 35 97 60 43 85 79 61 35
33 7 91 119 89 88 106 123 100 95 101 102 103 102 109 130 123 114 113 101 87 64 79 55 55 58 50 52 57 59 67 55 28 6 -8 96 56 86 43 47 80 54 54
17 11 69 137 109 93 104 102 107 105 110 117 113 112 118 132 140 131 125 114 100 85 83 53 71 66 63 60 62 55 67 55 15 5 31 50 104 80 61 22 98 90 68
23 12 49 62 118 89 89 101 95 107 110 110 112 109 117 127 142 143 132 114 95 108 79 61 80 75 76 70 69 66 61 43 4 -34 16 115 96 59 81 75 90 101 87
33 15 20 -3 76 106 106 102 98 99 94 94 107 101 111 121 133 136 139 117 103 106 87 74 85 78 76 74 77 73 56 28 -2 6 16 88 115 75 70 92 92 95 102
21 34 24 10 67 102 107 119 114 100 86 97 103 101 106 115 116 114 124 121 101 107 83 83 91 84 81 75 75 76 57 19 8 -38 72 80 132 107 118 100 93 90 111
28 34 56 59 91 119 111 116 127 112 100 103 100 104 106 89 92 99 88 135 110 104 102 73 101 97 73 86 82 76 59 35 28 58 82 105 110 143 76 91 96 98 112
51 38 28 63 82 132 155 130 96 97 87 90 94 98 84 74 83 69 85 119 114 113 105 102 94 94 89 66 88 89 68 30 31 80 75 98 78 89 115 88 92 110 104
123 63 42 44 58 79 114 172 148 107 89 95 92 99 86 86 77 74 70 90 88 90 89 113 110 91 80 59 75 81 71 31 89 74 30 134 94 66 34 78 83 92 117
92 111 57 83 68 52 70 60 65 111 99 99 92 100 92 93 97 96 70 108 95 107 77 87 116 103 79 73 84 76 60 59 81 67 133 155 133 71 39 102 82 22 82
119 132 151 107 77 81 81 71 59 56 71 84 139 130 99 88 103 90 82 66 110 90 112 75 106 125 98 89 88 81 72 89 49 129 148 184 134 89 62 83 72 26 80
159 133 134 145 178 89 92 96 92 77 61 62 82 114 137 146 147 117 108 93 51 124 110 103 58 135 121 107 100 88 94 89 89 124 100 147 138 128 82 62 98 55 82
110 134 115 105 134 162 93 75 86 97 86 74 77 105 124 155 124 120 131 170 91 125 138 122 117 98 111 124 124 104 93 95 115 116 113 103 140 128 54 57 56 65 73
113 110 129 143 130 128 144 146 80 83 99 97 102 94 68 88 126 151 148 171 135 109 191 171 112 111 114 137 150 129 98 109 114 114 118 129 133 136 93 130 194 29 53
117 109 99 113 115 150 145 145 159 103 107 110 111 135 99 82 105 159 193 222 168 142 203 227 158 144 145 140 145 129 115 111 118 93 96 113 126 117 147 79 53 4 73
113 94 82 91 83 82 103 135 142 157 130 141 129 142 150 124 117 165 189 224 237 213 227 235 205 155 161 112 144 194 143 118 137 129 96 123 112 132 111 128 133 100 57
110 95 91 100 116 112 106 94 119 149 158 145 144 164 176 152 140 176 194 205 239 257 200 229 194 158 188 172 210 174 166 125 122 119 108 106 119 168 188 144 191 189 68
83 76 71 77 88 113 160 174 209 218 251 204 149 156 167 193 194 211 189 218 190 266 190 233 238 213 204 207 223 268 169 159 192 157 151 108 97 154 103 81 192 95 59
61 64 49 60 75 87 85 120 165 193 164 203 254 196 155 146 193 253 282 218 255 281 275 306 229 201 210 218 206 231 204 180 204 201 134 117 90 63 70 63 31 -2 42
61 55 48 35 49 60 94 118 176 220 271 205 188 188 141 138 153 214 280 233 258 282 283 298 236 189 149 221 207 148 134 182 137 151 178 123 115 111 108 93 67 75 112
50 43 34 19 27 52 88 129 145 137 161 148 197 201 154 118 153 178 222 292 334 267 289 240 172 133 145 164 215 234 132 192 165 155 100 127 140 124 110 90 118 58 77
35 28 16 16 22 51 80 96 93 90 124 117 146 232 195 164 203 191 220 276 308 318 282 250 262 87 146 155 150 185 190 222 218 173 121 52 107 177 170 122 78 63 107

GFSSE_con_3kmhel_108.txt.gz
Helicity
35 3 134 118 112 102 80 59 53 51 38 35 30 29 33 47 58 65 65 73 76 77 63 49 43 27 10 -2 11 31 50 50 57 70 77 88 83 68 47 25 11 76 62
69 47 110 124 96 93 83 66 54 55 49 48 49 49 50 61 68 62 63 61 62 52 42 38 33 27 17 17 20 32 44 49 64 61 69 76 64 58 45 35 53 59 71
76 50 83 112 93 84 82 76 64 60 59 61 58 56 67 75 80 81 76 60 51 36 28 27 28 25 21 20 28 30 37 39 46 44 35 39 54 68 51 35 74 79 72
55 50 63 92 78 74 77 82 72 60 63 68 69 76 78 80 79 81 82 70 51 35 38 29 26 27 32 31 33 35 39 37 37 23 -3 16 52 61 52 59 91 90 73
43 56 56 99 81 74 71 76 75 71 70 82 86 85 94 93 92 89 84 81 59 46 34 36 29 23 33 38 40 38 38 34 27 19 32 94 70 44 59 66 67 99 73
82 64 119 105 95 80 76 71 63 70 81 89 99 92 94 95 94 92 86 82 63 48 68 57 34 29 43 40 48 45 40 32 22 8 52 80 77 60 75 51 59 62 83
88 93 72 120 111 92 84 78 72 71 77 80 94 91 91 98 94 94 98 86 70 56 63 67 51 44 40 45 47 47 37 24 17 -10 125 145 6 62 75 59 71 91 82
62 42 71 102 107 105 79 83 78 76 72 75 84 90 94 98 99 99 96 97 81 61 60 69 53 58 48 48 52 49 34 24 11 -38 67 117 46 86 66 78 82 96 96
5 74 31 34 71 92 100 89 101 92 76 75 78 83 97 100 98 91 95 95 94 74 71 72 83 71 51 47 49 47 37 18 -8 -28 82 80 115 28 67 85 89 110 111
29 47 82 -1 39 82 122 110 113 109 94 87 77 82 96 94 91 83 86 89 84 82 78 76 79 92 86 56 47 45 42 19 -2 -40 24 96 49 100 86 78 78 121 115
76 3 44 117 13 78 113 119 130 119 116 111 96 90 115 110 102 87 79 86 78 76 72 74 84 82 88 98 60 49 57 42 28 8 62 43 100 98 96 106 114 41 110
79 129 7 83 103 54 106 120 133 133 131 125 112 117 114 102 106 88 93 93 103 93 74 81 88 95 104 94 116 91 76 49 30 26 113 107 100 96 104 115 134 44 81
105 92 40 1 90 93 99 167 144 159 145 131 112 122 121 121 99 104 119 121 127 110 88 87 96 113 117 86 102 121 105 60 39 60 73 99 91 91 115 118 159 20 54
80 74 69 42 30 48 98 156 153 98 113 124 125 124 127 133 130 127 113 171 145 144 126 104 110 111 108 107 67 120 97 87 62 93 150 117 116 102 81 86 105 39 61
116 176 191 149 62 54 69 104 98 98 120 98 101 98 117 151 133 123 129 141 164 115 142 113 115 117 103 106 100 113 98 92 64 109 127 146 141 118 84 109 128 104 49
188 226 192 205 198 226 89 97 102 115 104 124 126 130 103 117 125 120 123 141 168 171 173 119 99 126 120 108 105 124 121 93 107 136 142 176 176 94 113 132 168 106 76
190 202 226 114 136 174 197 194 101 107 114 114 122 118 127 124 209 182 174 178 132 198 170 150 99 163 120 136 141 130 127 127 122 138 144 170 184 126 111 127 204 122 35
194 197 180 163 150 163 186 161 140 180 113 121 124 117 167 148 139 211 187 200 230 237 239 231 171 196 175 172 151 133 126 126 136 148 161 164 187 152 116 141 143 109 63
191 182 136 104 123 139 150 148 144 116 151 140 121 125 185 194 186 159 168 214 203 223 313 234 215 236 219 203 161 150 129 132 129 149 163 160 177 193 141 135 220 175 109
170 142 140 124 105 90 88 102 124 138 127 139 142 141 139 222 185 143 161 212 244 250 263 314 250 272 245 206 192 152 150 120 132 145 157 179 197 156 151 151 165 239 147
135 133 135 112 106 93 67 70 87 116 173 186 161 143 173 210 207 165 191 187 289 294 284 335 311 319 310 266 241 235 225 221 174 169 164 212 216 143 176 115 184 228 147
105 96 97 96 94 86 84 85 61 36 68 138 212 274 211 170 213 212 177 241 297 310 301 309 328 310 307 290 263 296 191 168 156 169 179 206 198 153 148 137 136 225 172
72 66 77 78 73 67 77 67 70 88 98 88 117 95 183 199 247 284 224 245 297 255 171 183 230 259 315 312 272 293 229 194 187 179 209 242 214 178 150 170 107 148 182
76 71 73 72 66 56 56 58 81 66 67 101 119 210 232 210 284 296 300 278 318 294 317 224 137 270 291 306 260 186 217 182 161 151 161 179 217 181 148 171 162 149 68
76 55 44 49 53 47 41 40 43 62 84 91 103 86 169 278 235 287 328 277 287 318 314 381 331 186 256 317 214 182 138 144 138 207 182 155 164 161 145 157 176 237 147
61 41 29 30 32 35 35 38 43 49 53 62 63 52 24 104 226 233 324 276 264 295 319 317 354 182 309 251 290 212 168 187 183 248 252 166 112 138 140 154 184 151 90

GFSSE_con_3kmhel_111.txt.gz
Helicity
21 34 84 102 101 99 87 78 66 70 53 42 51 65 63 65 62 64 61 56 55 55 52 45 34 21 19 19 22 30 44 59 72 78 59 72 77 97 86 71 77 66 64
45 52 66 106 94 95 89 83 63 60 64 51 47 68 76 74 67 65 73 74 73 58 42 33 25 15 17 15 19 23 30 48 63 59 58 81 75 90 69 54 75 59 58
44 68 86 105 105 96 92 85 77 68 70 70 53 70 87 88 73 67 70 65 63 57 41 29 21 12 9 13 16 19 30 37 51 42 51 54 72 82 63 56 76 71 64
42 67 101 91 110 102 106 94 81 71 66 69 62 68 91 97 85 74 72 63 55 51 45 36 27 16 14 15 17 22 30 33 40 29 23 49 53 43 45 57 59 68 70
51 65 75 116 105 102 91 95 80 65 66 67 68 71 80 94 86 75 72 66 51 39 42 37 29 27 28 23 20 27 27 28 28 20 30 23 28 20 37 52 61 62 64
140 62 60 121 122 102 94 82 80 68 65 64 68 71 72 82 82 74 72 70 55 37 30 46 37 30 31 29 23 25 27 30 31 18 56 96 87 85 47 48 56 66 75
103 106 36 86 122 113 97 84 77 72 67 73 68 67 72 72 77 73 66 67 61 43 40 58 42 31 31 22 21 17 23 31 34 39 49 111 41 66 -14 21 65 49 91
46 76 78 44 79 113 97 91 89 87 78 71 75 73 73 68 73 73 72 62 59 56 55 52 51 45 44 36 31 21 15 13 35 68 65 73 36 38 -31 31 73 68 78
69 66 59 54 69 94 113 104 99 95 84 71 70 74 72 74 75 74 72 70 65 60 56 62 57 53 47 42 41 45 35 10 12 78 66 122 97 79 1 57 82 82 85
113 40 31 47 53 97 130 134 130 111 98 90 81 79 75 75 76 78 71 74 73 66 63 65 65 63 48 48 49 44 55 46 32 46 65 51 35 20 22 76 97 101 79
145 106 41 27 25 77 120 132 133 128 120 111 103 95 98 101 84 86 81 78 78 75 82 83 83 75 66 50 53 51 57 62 58 59 73 80 89 73 36 77 112 98 106
182 150 78 46 48 34 94 133 155 146 142 142 141 133 125 113 107 95 87 76 79 76 84 89 93 87 92 78 62 65 73 63 63 47 85 83 54 57 92 94 112 116 124
126 100 111 72 31 -5 60 133 146 170 161 144 136 145 135 114 115 109 127 109 114 98 101 119 119 114 112 99 82 77 79 74 63 45 105 90 72 74 86 124 126 133 139
119 82 119 124 99 58 49 112 149 166 173 157 143 146 151 136 110 135 144 150 150 149 141 148 153 135 125 102 99 94 96 87 90 75 76 125 94 94 89 104 125 120 158
156 230 291 216 147 119 93 111 119 115 137 141 150 140 167 153 136 137 153 173 171 165 155 160 170 155 136 130 94 122 110 92 77 104 122 98 84 103 104 75 101 123 182
209 248 226 261 221 189 184 145 111 110 115 139 154 138 145 170 149 140 159 211 184 192 192 163 181 178 156 132 103 110 115 111 95 112 115 120 90 113 104 78 97 123 162
235 294 301 270 296 233 194 178 140 117 125 103 115 134 124 166 143 115 139 185 203 195 211 190 160 180 172 157 141 130 137 133 117 121 144 139 135 123 114 94 114 142 164
334 368 366 261 204 215 212 173 138 124 119 129 117 121 117 143 161 162 165 172 231 243 256 223 190 197 175 197 197 183 173 151 132 124 150 150 164 167 132 109 125 164 142
382 425 342 221 162 164 154 173 183 161 125 106 114 100 121 123 147 172 170 185 197 268 306 285 278 250 243 230 230 220 188 161 162 160 155 172 164 182 170 118 106 130 162
380 349 261 146 116 100 118 133 138 150 166 164 154 132 120 150 149 168 165 162 191 240 323 371 312 310 300 303 265 225 181 168 177 167 169 177 181 196 190 153 130 136 189
310 196 153 114 89 70 74 94 111 106 103 108 132 169 168 193 167 163 202 204 185 209 249 366 408 349 392 358 388 305 308 256 176 150 182 209 201 180 175 176 142 143 147
204 165 141 86 59 64 50 44 26 45 41 66 54 61 93 126 177 199 237 243 241 229 247 309 391 462 438 390 367 389 279 272 220 201 200 211 205 205 181 157 125 128 134
215 172 81 66 74 58 68 30 19 8 14 -4 29 58 49 108 159 189 169 226 276 304 286 363 407 342 649 246 254 274 279 260 275 237 190 211 223 222 174 157 134 125 115
196 107 48 48 53 52 34 21 29 12 32 39 32 55 55 54 61 164 294 172 243 296 268 301 434 340 497 216 143 167 168 190 243 223 188 190 216 214 178 161 128 122 127
165 57 31 43 35 39 25 9 8 24 21 28 33 26 33 38 64 71 221 324 203 294 282 381 445 381 324 530 625 161 225 250 237 264 198 197 164 156 180 173 124 111 135
131 53 15 41 45 25 19 24 21 23 27 30 39 20 20 62 59 48 98 318 207 217 267 323 344 286 382 338 342 279 294 261 209 291 302 218 147 141 165 187 148 140 148

GFSSE_con_3kmhel_114.txt.gz
Helicity
10 1 47 105 97 111 105 101 107 111 105 103 113 119 118 101 91 86 93 87 76 65 50 48 57 52 40 40 39 40 39 43 41 40 43 52 77 92 95 78 75 69 67
31 15 43 76 93 117 117 94 93 94 101 98 104 118 125 113 95 78 72 74 72 66 54 53 58 54 48 42 35 38 46 41 33 30 36 64 81 80 80 82 68 61 70
23 42 53 90 81 102 114 107 90 83 84 99 100 115 123 119 103 88 77 73 71 61 47 42 42 44 52 48 40 43 39 33 38 37 51 46 64 67 58 55 74 61 62
27 37 82 99 97 88 110 107 100 88 75 80 86 94 108 126 113 95 81 73 69 61 50 41 38 39 44 43 43 49 46 40 46 48 44 43 73 67 49 50 62 63 64
44 41 59 113 106 94 96 97 97 98 85 73 63 74 91 106 107 99 86 79 69 59 49 36 29 35 32 33 34 40 41 35 41 42 34 23 30 33 57 70 64 54 59
29 52 75 95 131 106 99 100 96 97 91 77 66 61 74 94 95 94 85 83 70 61 47 40 32 35 35 37 36 37 39 31 36 31 47 44 9 26 42 61 54 51 64
59 62 76 90 114 128 107 105 107 100 96 87 71 62 73 79 90 81 72 71 64 67 59 50 46 40 40 36 33 33 42 42 41 43 56 36 25 69 55 50 70 46 59
74 46 73 48 79 111 113 103 109 107 105 95 79 70 71 75 81 79 68 61 61 65 64 65 47 45 46 39 35 32 40 45 64 49 52 26 33 45 70 39 64 50 63
111 68 67 60 52 79 111 113 105 107 105 103 94 84 71 77 77 78 71 67 61 68 62 68 64 61 54 45 38 35 36 53 77 52 58 22 3 17 45 28 56 55 70
128 88 61 72 52 76 104 122 119 113 108 101 102 89 78 73 77 80 76 73 72 75 76 66 72 71 67 65 56 44 38 65 81 56 39 66 44 25 52 25 19 47 77
95 107 122 64 42 52 103 127 134 127 125 120 115 101 98 99 88 85 84 67 67 72 78 81 85 83 74 67 72 72 63 61 79 63 53 45 38 30 26 38 29 57 64
106 118 139 125 51 51 85 132 160 171 171 162 148 135 133 114 108 99 88 69 67 71 80 90 98 94 97 85 71 90 78 65 73 69 51 54 61 63 48 18 47 69 74
81 176 159 133 93 54 43 112 155 172 182 181 166 149 146 129 125 116 110 95 94 70 93 95 113 126 130 113 99 103 89 79 82 78 63 57 62 67 58 65 70 80 73
147 177 238 180 145 79 71 80 109 153 157 161 168 163 159 152 145 133 139 128 132 127 125 130 136 145 148 134 125 119 116 91 79 90 78 73 46 44 50 79 82 110 97
299 318 310 265 220 131 96 84 114 135 134 134 138 140 165 157 147 159 147 158 154 163 161 156 154 148 146 143 131 123 112 116 93 97 112 61 57 61 79 66 82 104 113
440 497 448 426 343 321 250 144 125 134 132 138 146 136 143 157 157 168 169 174 178 182 176 175 173 160 156 156 140 154 138 115 122 128 116 106 63 31 57 73 90 94 117
612 598 531 439 391 360 320 267 194 126 112 153 150 133 142 140 155 165 184 205 191 198 188 183 166 168 170 174 146 158 162 134 127 138 142 129 95 83 94 76 77 91 113
687 711 585 396 353 303 288 240 216 172 133 120 134 93 108 135 143 153 186 170 171 217 216 193 196 213 176 183 166 162 171 170 153 167 167 162 153 142 101 86 67 90 127
696 588 455 353 308 247 183 145 194 195 131 115 110 128 132 122 103 134 138 172 196 126 226 229 215 235 241 213 190 189 195 193 193 198 184 187 169 177 155 117 83 87 135
685 578 408 278 223 170 162 164 100 89 131 86 76 97 121 148 170 143 123 148 189 231 223 256 238 271 284 236 249 241 229 208 192 197 196 197 192 186 162 146 120 111 105
670 531 422 324 201 121 103 142 99 51 74 91 83 71 84 88 140 175 147 122 145 170 191 235 265 297 337 358 397 339 329 257 215 175 199 196 197 190 179 150 142 134 121
542 443 370 283 218 147 69 53 44 88 39 56 56 90 81 65 96 134 151 172 141 149 171 226 219 242 247 336 304 261 347 326 269 189 193 180 175 197 203 157 141 139 124
479 334 216 175 191 199 119 37 24 11 11 7 43 59 99 107 86 85 97 113 151 189 166 175 232 202 209 380 411 276 645 297 232 196 171 178 193 221 209 185 146 109 113
402 297 243 200 215 142 88 45 29 2 11 26 28 35 61 104 110 85 78 98 140 174 166 162 227 244 343 389 557 488 94 206 105 108 165 176 196 212 220 189 174 137 115
339 270 222 186 220 126 71 34 4 31 26 27 22 15 28 51 80 114 106 94 138 187 204 157 253 340 367 449 518 426 305 262 333 349 108 126 198 168 180 187 187 162 138
263 228 173 106 135 87 20 5 4 9 26 31 21 33 17 28 52 87 130 143 158 188 261 192 240 264 335 385 390 317 303 385 350 490 409 279 158 172 142 179 188 191 139

GFSSE_con_3kmhel_117.txt.gz
Helicity
59 35 18 44 40 88 105 129 153 162 163 156 152 153 146 143 111 111 94 76 56 42 48 61 61 61 66 60 43 35 28 27 25 27 35 49 60 63 69 72 76 59 65
82 34 45 72 71 106 125 126 125 143 137 140 144 149 156 151 132 115 99 89 76 60 56 58 61 55 60 61 47 38 28 26 26 26 38 55 60 65 60 60 56 53 65
51 47 52 90 106 102 117 130 127 115 127 128 131 133 145 152 129 109 97 92 87 76 61 56 57 55 60 64 52 41 33 30 31 39 44 43 46 58 52 52 46 58 60
26 37 75 108 137 123 107 114 124 117 107 110 122 125 124 142 131 113 98 87 84 77 67 63 60 55 63 65 51 44 36 35 36 38 37 47 43 49 49 52 68 53 61
34 15 38 107 152 141 125 107 112 118 110 104 108 119 120 125 137 125 110 95 86 82 71 64 63 67 66 64 54 49 41 45 43 53 46 46 38 21 36 54 61 58 52
49 32 43 70 133 143 121 117 106 107 107 102 99 107 115 120 126 129 113 104 94 84 77 69 68 68 63 61 56 53 43 49 56 50 36 25 24 8 35 44 49 73 72
44 24 56 71 95 126 118 102 96 97 98 101 91 99 107 117 120 128 118 104 97 92 81 75 66 71 69 62 56 53 43 48 64 42 21 40 42 33 72 45 63 63 69
92 54 44 51 73 99 122 120 93 86 87 87 92 95 102 107 113 115 117 106 96 97 87 78 79 73 71 68 66 54 46 48 57 40 23 23 34 54 59 85 50 45 57
103 100 70 49 49 77 101 115 126 99 84 82 91 96 95 95 93 96 97 103 96 92 88 85 83 77 71 68 71 64 65 55 51 44 19 20 19 41 56 81 43 55 65
90 100 97 87 68 70 90 104 114 119 98 89 95 100 104 93 87 82 85 90 100 90 94 89 86 83 84 77 77 76 76 67 56 52 32 21 37 32 54 60 43 74 73
117 82 83 90 72 66 63 89 107 101 107 100 98 103 117 124 109 94 94 91 98 95 98 97 94 87 85 83 82 100 105 80 69 60 47 31 29 43 34 34 43 82 60
123 91 88 114 116 115 94 77 109 122 129 137 130 134 143 127 132 123 96 79 82 88 94 95 94 92 104 95 93 108 118 98 77 62 54 23 25 36 33 25 56 71 70
112 183 147 168 168 149 127 104 108 147 157 147 138 124 130 144 148 134 125 111 110 96 118 104 111 122 126 110 103 114 115 119 91 79 66 40 0 14 45 63 27 50 59
168 106 215 229 240 219 173 103 87 102 147 139 141 135 145 148 144 132 141 134 132 153 147 152 147 139 136 127 124 116 119 132 107 82 75 50 41 34 25 39 33 56 66
325 364 390 376 386 336 266 152 80 74 128 146 114 109 109 120 120 125 136 140 143 176 170 173 168 168 156 149 141 134 111 115 120 106 101 56 60 69 42 21 17 27 52
426 541 568 609 546 480 396 311 205 171 157 143 130 119 117 114 115 123 122 122 130 176 179 193 188 183 171 169 144 148 125 115 125 123 119 92 74 69 70 36 38 17 32
554 601 681 653 531 461 391 339 263 205 180 179 166 213 143 89 90 113 124 134 143 178 189 183 192 198 168 165 147 161 161 144 134 133 118 119 89 61 71 48 48 62 51
689 761 747 651 572 490 409 319 256 223 195 178 142 140 148 149 223 139 144 150 136 184 192 180 178 180 157 144 129 158 162 161 155 153 132 127 130 130 89 87 92 85 62
760 778 781 697 569 445 356 254 224 217 212 166 135 114 110 92 103 134 191 140 145 180 191 198 123 176 165 156 150 154 176 175 161 159 148 141 138 137 138 119 128 105 78
833 836 759 675 558 426 315 224 207 216 230 205 181 127 104 80 75 59 81 122 172 144 158 204 141 156 193 90 119 164 194 173 174 174 151 160 159 147 141 140 158 149 104
841 810 731 603 509 399 331 232 151 107 163 189 186 166 129 87 98 78 48 61 88 125 124 161 177 157 189 191 267 252 110 159 156 175 221 194 152 145 152 146 153 166 149
710 677 587 492 390 308 200 98 100 113 82 78 136 163 124 107 93 92 82 70 89 111 151 127 143 173 189 243 203 236 200 270 287 251 174 181 157 157 127 136 139 167 166
508 470 438 415 348 296 208 146 85 96 83 53 80 90 127 135 107 70 77 69 68 100 127 160 161 154 171 209 226 239 290 328 286 400 233 117 113 142 159 146 148 168 189
412 327 364 381 348 317 230 128 122 40 37 49 70 60 65 72 94 111 89 76 64 67 117 133 155 171 175 217 291 327 402 330 347 385 372 243 77 129 181 172 159 191 196
585 362 294 348 345 284 253 160 71 72 40 14 19 44 49 48 82 93 97 122 100 87 94 134 163 178 195 211 328 357 417 452 424 429 380 415 308 75 231 275 223 215 225
382 360 412 310 300 235 205 170 147 94 70 35 28 9 1 16 40 82 102 98 111 124 105 111 143 192 198 244 299 328 410 465 472 441 361 316 237 216 234 247 302 220 210

GFSSE_con_3kmhel_123.txt.gz
Helicity
54 93 117 117 106 87 41 41 60 60 85 108 125 130 117 112 121 109 107 104 94 88 80 75 70 65 65 68 69 59 50 40 37 41 40 37 38 41 41 31 16 25 29
53 89 130 152 144 114 78 67 72 69 89 106 115 119 108 111 118 102 97 97 101 104 101 90 84 81 73 66 59 55 53 43 43 43 35 31 35 42 43 41 9 41 49
48 65 105 144 166 152 129 101 87 89 86 110 115 116 113 101 107 104 97 102 99 112 107 102 92 86 71 53 53 56 52 43 44 45 24 16 23 46 52 40 28 36 36
33 54 84 128 169 178 155 133 109 98 101 98 111 110 110 107 96 108 105 103 104 116 120 104 98 84 66 55 55 58 50 50 50 47 19 14 28 46 45 44 38 32 35
21 20 45 99 142 178 173 145 121 110 102 99 101 109 114 111 89 104 113 105 103 115 121 108 96 87 64 54 60 63 51 51 53 27 29 21 24 40 36 37 33 30 19
31 24 35 61 99 134 151 145 132 115 101 95 99 110 119 118 108 102 109 112 110 110 112 100 91 103 74 52 57 71 56 48 42 30 29 32 28 33 25 34 29 35 31
33 22 14 31 45 74 111 134 138 121 105 101 96 103 114 123 121 113 99 105 110 110 102 96 97 110 82 57 60 73 64 48 28 39 32 29 23 28 27 39 47 38 36
15 5 6 24 36 47 74 110 134 142 129 102 97 100 102 109 112 104 93 89 95 101 101 99 115 108 84 60 54 80 68 46 33 32 34 24 20 20 29 66 46 53 46
7 -7 -6 1 12 28 45 81 130 166 149 130 111 100 99 99 101 99 92 86 85 88 94 104 107 105 89 70 57 79 77 60 35 38 37 29 18 16 26 58 75 63 48
39 19 23 22 27 40 44 63 89 96 126 150 143 122 106 101 97 100 98 89 82 84 86 101 106 101 90 71 61 73 82 66 35 42 40 37 34 18 21 17 60 73 41
76 47 58 60 60 62 54 54 76 92 108 137 146 147 148 124 106 95 97 106 90 86 83 94 111 108 101 80 63 56 81 51 46 38 43 56 44 26 7 14 44 60 41
146 108 63 67 69 86 88 74 74 72 77 109 136 153 152 142 142 129 121 106 99 91 87 91 106 112 119 95 79 66 53 50 47 36 41 63 57 40 31 38 40 49 39
117 99 78 100 96 109 120 114 120 112 122 134 113 128 161 164 148 152 152 143 128 118 109 105 110 104 108 113 99 87 62 50 52 44 33 57 56 41 38 52 38 45 46
155 134 93 83 132 131 152 164 143 172 153 139 128 121 120 163 169 164 156 146 146 144 128 122 119 118 115 109 100 84 74 61 53 49 48 54 62 44 26 23 37 43 44
158 157 162 135 137 164 172 165 169 169 140 120 119 120 151 137 143 156 147 152 137 120 129 134 112 114 131 136 126 97 76 67 53 63 52 53 46 53 36 14 11 27 51
151 186 200 263 323 229 182 219 200 205 194 182 174 152 99 142 138 148 168 170 169 166 155 117 107 112 129 155 157 138 95 79 62 57 59 47 44 32 47 29 8 21 26
197 216 250 285 298 341 341 300 262 278 244 243 227 218 196 190 209 175 133 138 162 150 150 146 133 135 129 147 146 171 147 113 96 73 67 66 56 42 42 52 28 25 36
259 358 361 344 384 394 403 351 313 279 272 261 256 224 198 178 168 166 167 170 189 198 142 142 159 161 155 157 163 159 175 153 101 104 81 81 69 70 58 49 43 34 44
239 316 387 419 405 385 354 334 305 279 259 262 235 202 187 173 163 163 167 158 157 173 188 206 152 171 163 168 176 178 169 165 119 96 115 85 67 80 79 69 61 33 43
265 313 352 365 404 336 290 274 254 232 233 245 218 205 208 177 175 158 160 151 130 131 135 144 155 163 168 182 166 150 208 191 147 92 243 81 85 90 57 93 71 25 29
291 327 371 390 356 317 311 283 262 258 241 222 213 214 196 180 173 177 174 167 162 136 138 146 142 151 192 244 273 260 159 14 141 259 228 63 37 103 80 102 119 32 29
249 302 325 325 368 317 241 260 228 267 207 165 179 177 190 185 178 173 171 158 150 149 145 144 156 178 172 192 256 231 264 273 135 178 199 38 155 90 132 61 274 139 53
235 217 248 269 299 335 325 215 204 255 283 198 171 164 177 180 173 188 158 145 128 107 120 148 165 171 185 206 162 296 300 298 198 161 161 47 115 236 142 144 201 228 96
219 284 203 249 259 321 344 338 248 121 249 185 159 152 140 145 161 207 185 160 131 108 97 107 138 165 202 193 238 194 208 328 282 228 217 195 216 263 152 220 223 191 144
126 172 263 209 218 209 241 252 255 374 125 106 108 133 104 107 158 188 188 175 159 129 116 117 125 129 146 178 194 257 215 224 233 266 228 236 213 204 149 148 237 220 165
221 225 259 215 146 192 261 243 236 153 24 4 89 64 80 138 143 159 191 174 141 137 132 125 120 109 117 125 135 161 189 215 224 250 235 227 219 241 218 177 187 191 184

GFSSE_con_3kmhel_129.txt.gz
Helicity
87 86 58 57 72 75 72 66 79 73 67 59 42 46 52 59 73 75 80 85 87 84 77 64 50 39 35 34 36 51 56 48 42 43 42 46 48 45 24 -2 -14 46 36
73 71 53 57 76 85 81 73 84 79 67 60 46 48 58 74 74 71 70 75 77 82 75 65 57 55 56 60 57 51 51 41 37 31 43 53 46 35 13 -2 -35 58 32
40 49 47 44 69 87 94 92 90 84 72 63 48 42 53 78 81 78 72 67 60 66 67 64 63 66 72 71 58 45 45 39 30 19 -11 18 42 35 23 8 53 49 30
20 25 29 47 62 85 93 99 95 87 80 76 63 57 56 62 69 81 82 75 62 54 50 47 53 62 73 71 60 50 48 38 24 -3 -7 52 64 62 33 32 38 43 33
17 13 62 47 50 69 89 97 101 94 93 98 89 79 72 70 62 61 71 82 74 65 56 45 44 52 70 64 56 48 50 40 12 -7 -4 48 43 71 45 39 37 28 16
33 35 45 45 30 37 53 74 87 89 95 114 113 106 97 92 83 66 60 69 74 69 61 48 43 54 61 57 52 43 38 33 12 -1 24 42 75 87 61 34 14 23 7
53 40 34 32 23 18 21 30 43 61 73 86 103 108 104 102 101 86 70 63 64 55 58 52 39 47 51 42 37 36 25 17 -3 -27 36 58 69 75 63 31 13 26 35
90 70 47 41 28 21 21 25 31 36 49 64 72 80 89 95 96 97 90 73 65 51 41 52 43 43 48 41 33 28 20 3 2 -16 21 44 144 76 57 30 34 32 36
105 98 92 67 33 33 31 36 44 48 56 60 63 71 78 82 82 84 88 82 70 63 45 44 41 45 46 45 36 29 19 -2 -30 -24 26 44 120 92 49 41 45 39 29
121 131 114 70 54 41 43 53 64 77 88 93 92 90 91 93 89 90 98 90 86 74 62 59 52 53 50 49 43 39 32 11 -12 -18 28 27 137 95 58 52 44 42 46
132 109 77 90 65 49 40 72 63 62 59 50 44 65 96 103 106 99 106 101 108 85 82 74 70 71 61 54 57 52 54 28 20 15 -23 204 134 86 67 54 56 43 43
172 157 139 115 112 75 51 67 57 65 58 60 60 49 58 69 83 83 102 147 152 113 102 96 86 86 92 62 74 90 62 25 21 10 18 144 137 92 73 64 65 51 45
194 204 252 195 218 136 88 85 82 77 78 71 71 77 92 73 66 74 84 149 139 156 133 123 113 111 95 89 57 123 42 41 36 29 37 148 124 86 72 66 57 48 50
196 175 195 199 220 242 222 133 70 57 67 81 81 79 85 78 64 69 74 91 94 115 130 159 155 119 113 97 58 41 84 69 59 45 69 164 129 98 77 72 69 68 57
162 187 215 198 208 237 282 292 295 276 202 153 158 110 74 74 62 62 63 74 93 105 123 143 149 150 121 87 72 75 92 121 76 68 57 151 136 109 80 60 65 71 71
126 151 166 209 207 234 259 311 312 358 379 330 298 286 288 219 147 86 77 65 67 92 107 123 129 145 153 136 116 79 92 134 152 101 91 139 130 109 102 72 74 75 64
96 97 84 116 178 208 243 267 255 284 296 311 280 282 280 232 186 169 155 140 105 84 63 76 83 114 135 165 152 150 133 118 111 118 135 75 124 115 117 99 78 74 92
99 95 90 95 113 124 154 190 196 300 307 296 277 262 276 249 212 154 113 79 60 40 80 76 93 67 87 121 174 177 193 155 143 143 147 164 124 125 107 92 101 88 85
130 137 135 121 133 135 121 119 158 162 183 263 238 261 298 239 225 181 134 71 49 17 7 22 45 74 101 75 91 92 138 174 153 170 175 171 168 161 155 106 63 103 76
122 120 129 127 140 141 125 80 89 147 147 133 171 235 274 226 225 209 182 155 81 66 71 90 85 65 75 87 101 95 104 117 160 166 188 176 214 227 136 89 97 91 96
106 116 131 137 136 116 115 141 121 113 120 137 131 128 169 179 220 266 250 224 176 137 130 118 96 82 79 81 88 94 92 99 118 164 202 140 115 200 199 159 117 135 131
114 134 153 169 164 158 139 129 106 82 70 67 79 116 139 132 125 146 157 133 110 86 109 125 124 83 87 93 92 92 124 75 110 169 199 158 181 138 269 118 116 154 159
113 131 132 139 155 158 177 126 132 92 79 93 94 58 115 157 110 85 91 126 117 93 88 101 103 104 72 88 152 135 108 106 73 108 148 220 197 196 191 186 161 81 170
101 101 110 117 126 114 106 123 148 137 138 101 128 131 128 95 142 146 77 77 111 110 81 81 97 84 80 61 70 123 175 87 89 117 116 107 133 205 179 158 190 176 219
108 84 55 41 53 67 81 105 106 122 104 93 108 145 108 130 75 84 113 76 70 85 99 87 89 96 90 68 62 65 102 146 147 127 91 101 145 111 118 124 114 134 155
71 56 48 48 52 46 48 56 70 78 78 92 105 75 96 88 96 67 47 59 60 96 114 80 82 78 82 87 88 85 75 76 95 156 164 111 56 60 99 85 95 96 108

GFSSE_con_3kmhel_132.txt.gz
Helicity
41 47 48 58 52 49 49 62 67 63 52 43 27 10 11 13 16 16 24 40 50 54 57 50 35 22 21 27 41 46 43 40 42 42 45 49 52 48 27 14 4 42 32
89 72 55 49 47 46 50 55 63 62 66 59 43 28 16 24 27 34 34 35 39 41 42 34 27 21 26 33 42 41 33 30 30 34 39 45 42 47 39 -9 -16 55 40
49 55 46 41 41 47 49 58 66 64 67 68 58 43 31 32 34 37 41 44 35 35 45 41 35 35 40 44 42 36 31 28 23 25 8 34 18 40 51 34 99 65 47
36 24 30 34 32 42 45 51 59 62 71 74 71 59 48 43 41 41 41 40 43 37 39 44 47 50 55 49 39 35 29 18 15 15 -3 0 35 30 73 74 70 64 48
11 43 59 46 33 34 47 51 46 46 56 68 75 70 64 59 55 48 43 40 35 34 42 43 54 63 62 50 35 24 17 8 8 6 -10 0 44 57 68 68 59 59 38
37 25 28 51 45 48 59 58 51 34 34 48 64 71 70 73 75 64 55 45 37 38 36 36 51 62 54 44 34 25 14 3 -11 -30 5 28 36 67 63 52 49 44 24
86 24 31 52 50 47 54 49 55 50 42 41 54 58 63 66 76 78 70 54 40 33 33 34 41 48 46 35 24 16 10 -2 -22 -31 -12 63 139 90 61 47 36 49 48
116 74 44 42 43 41 41 38 39 48 59 65 67 70 74 72 67 72 68 62 55 47 34 29 33 40 40 34 26 16 6 -6 -23 -7 67 113 144 99 78 53 40 54 56
118 128 93 44 42 46 50 47 42 41 47 58 64 73 82 93 93 90 94 82 62 52 44 42 44 47 45 38 26 21 6 -4 -22 -54 9 116 187 130 92 71 43 61 63
38 85 106 137 101 51 58 57 62 56 42 49 59 60 61 67 72 83 96 102 94 77 62 49 53 55 66 60 47 31 26 8 -11 -39 -22 69 153 103 89 93 63 62 67
156 216 221 259 247 184 80 77 69 45 59 61 55 54 75 70 57 65 83 85 116 106 93 87 77 57 64 67 74 59 50 47 24 21 -17 168 182 134 92 96 82 61 64
294 240 256 230 237 244 206 112 44 35 69 73 72 82 87 64 76 69 91 117 120 116 99 100 96 95 103 102 90 101 126 78 45 23 32 186 165 137 111 118 95 68 61
361 281 231 187 192 227 191 191 212 112 121 103 52 48 84 96 83 77 73 113 139 122 118 117 121 140 145 141 111 138 142 124 104 64 25 217 192 144 116 114 104 81 64
234 210 186 176 160 222 166 184 191 185 214 222 149 97 92 128 108 84 85 80 118 108 103 84 129 140 144 141 122 99 162 138 107 53 93 198 198 158 136 123 123 91 75
164 131 138 144 172 230 179 211 211 248 205 208 241 311 274 256 182 133 115 99 73 75 86 96 93 125 141 150 130 101 97 115 105 74 119 249 238 202 165 134 140 106 85
101 104 96 113 134 147 171 186 207 214 233 225 245 278 279 239 182 155 156 164 156 132 103 78 59 72 105 142 155 126 55 73 123 156 158 195 184 217 180 135 139 114 95
45 73 101 135 176 166 168 148 167 193 190 190 216 281 292 265 232 195 140 129 118 118 113 90 67 73 55 47 34 62 101 68 87 140 160 202 183 168 202 173 139 134 114
104 81 62 82 116 162 136 143 135 140 145 126 133 181 238 237 240 226 188 160 105 92 74 77 81 94 51 58 45 75 68 58 51 103 126 148 183 201 192 159 142 119 127
127 96 94 93 124 129 156 120 135 199 192 137 129 154 202 222 215 264 281 299 258 155 116 123 128 127 93 71 41 46 22 53 127 251 33 20 71 242 234 175 166 143 105
138 124 110 92 109 116 144 164 131 102 144 191 171 125 113 99 209 256 237 245 236 243 229 189 149 112 91 62 65 58 49 89 119 136 95 22 31 297 347 343 308 117 60
134 161 161 146 146 139 124 147 161 139 97 120 163 215 182 133 149 148 202 170 174 181 164 142 97 94 79 98 84 91 65 50 99 117 124 137 211 113 -21 -8 63 171 201
118 133 131 144 149 166 186 165 149 115 97 69 32 91 149 156 74 111 146 139 158 141 124 125 128 79 57 117 91 52 40 50 38 86 115 141 165 163 152 169 161 26 75
86 89 102 115 128 128 186 163 166 164 170 171 155 99 91 90 85 107 157 136 107 110 97 94 92 115 92 64 116 100 68 92 68 46 63 126 153 225 208 181 134 99 91
87 74 73 72 102 85 76 102 147 162 169 168 174 151 143 102 85 105 159 167 105 98 98 76 74 67 90 96 49 117 149 147 89 31 57 86 74 114 158 196 199 124 163
106 107 104 88 88 68 59 53 55 67 77 107 111 125 128 129 150 137 131 92 100 82 96 95 92 88 61 85 92 73 73 106 131 124 61 39 79 113 106 134 142 144 159
118 117 94 85 87 70 57 63 64 73 73 66 70 89 87 101 59 74 94 116 79 61 41 44 62 81 77 95 87 85 104 90 106 123 111 42 25 -11 26 112 97 108 135

GFSSE_con_3kmhel_135.txt.gz
Helicity
31 39 52 66 51 37 34 35 38 39 34 31 23 17 9 -6 -5 2 18 37 53 58 54 43 29 21 21 26 28 30 34 43 42 40 48 52 61 70 59 41 52 40 42
50 32 49 60 50 42 35 30 36 43 44 39 35 26 22 13 8 9 15 26 30 35 45 41 26 20 27 28 23 18 27 28 32 33 36 35 41 47 32 3 46 43 39
37 33 36 52 45 44 41 36 32 39 40 41 40 30 25 22 15 16 18 19 24 33 27 17 15 22 36 35 28 16 14 14 23 23 31 20 14 34 19 17 54 53 43
-4 18 15 42 51 46 46 42 40 40 40 38 41 39 31 27 21 17 20 24 23 22 34 25 18 20 27 30 25 18 10 7 17 7 -8 3 32 37 59 73 62 59 50
41 40 19 50 62 60 60 62 55 49 50 48 42 40 36 30 28 24 20 18 22 22 27 27 27 37 33 28 15 9 6 7 19 9 2 -29 11 57 74 66 65 64 58
24 12 40 67 67 67 67 73 65 55 52 57 54 57 47 42 38 32 25 24 17 20 27 27 34 37 36 34 26 9 1 2 22 25 17 16 30 75 79 70 59 56 54
39 5 34 54 57 54 58 63 58 56 56 51 57 63 66 61 58 55 46 41 34 26 23 26 37 44 44 34 23 12 0 -4 -6 22 -14 -18 40 104 76 76 64 60 53
8 34 26 44 55 56 57 60 53 51 48 38 43 51 57 59 59 62 61 61 56 47 41 34 34 39 41 40 35 21 1 -16 -24 9 20 15 69 111 71 96 75 64 63
204 237 229 221 184 120 69 70 71 60 59 51 48 50 51 61 59 58 65 68 73 75 66 58 49 51 56 41 27 21 19 1 -19 -20 20 25 105 99 88 95 98 70 67
269 266 264 252 232 242 196 87 63 56 57 54 48 46 49 49 57 61 62 62 63 64 72 75 68 57 59 60 55 41 17 5 -6 -14 40 43 104 101 91 92 106 85 79
334 274 284 299 261 260 229 241 119 68 40 51 70 73 75 90 74 60 69 69 65 69 71 69 70 72 81 71 67 65 58 52 9 -18 16 72 156 132 137 108 94 105 86
346 253 168 165 205 210 191 212 232 193 126 94 75 72 89 94 82 75 81 88 88 91 88 84 67 56 68 101 110 87 107 89 61 29 11 53 150 127 163 132 100 124 104
192 148 88 70 136 179 150 130 155 201 230 199 168 108 102 107 89 87 89 100 102 99 114 104 100 102 110 136 124 127 123 127 114 70 37 68 161 152 172 174 130 124 127
103 106 134 123 161 193 127 134 143 144 209 261 305 313 276 203 142 165 157 116 104 97 99 93 115 120 131 153 143 133 143 144 145 126 80 56 167 186 208 171 153 148 153
104 106 141 128 184 206 179 180 187 178 144 188 271 310 297 216 188 181 176 197 144 120 122 78 61 59 60 85 124 138 146 168 173 195 157 89 126 194 173 189 172 156 172
76 76 102 116 149 145 139 149 156 175 160 157 157 210 270 272 221 207 211 204 168 115 105 111 109 70 41 49 82 73 31 14 40 86 120 79 120 195 151 162 164 152 157
67 81 111 131 141 170 146 119 137 149 143 172 182 171 160 226 320 286 233 287 242 195 135 116 117 109 99 118 89 61 65 61 67 77 16 -29 61 124 134 144 161 168 153
56 46 66 119 151 160 182 120 107 138 135 132 150 161 209 237 276 298 298 250 218 171 195 226 199 173 135 114 101 95 83 70 38 55 114 152 89 58 78 71 131 170 150
75 52 41 75 120 137 153 169 133 114 123 158 147 155 126 174 215 220 211 205 201 168 122 130 140 133 117 114 108 97 88 81 67 92 103 140 146 417 51 59 78 199 184
141 108 82 78 132 149 149 160 142 114 95 87 114 137 148 160 203 220 158 222 145 153 134 146 144 133 110 88 83 79 73 70 61 80 90 105 114 116 256 165 76 204 252
150 149 113 99 121 154 179 176 177 171 87 72 78 80 98 109 162 196 184 172 159 115 139 130 138 178 136 137 37 64 74 73 66 86 98 104 111 166 214 180 106 166 -41
100 96 92 100 92 127 129 145 132 178 172 175 116 164 99 81 134 161 219 231 219 186 219 154 145 108 94 146 83 60 78 58 154 142 103 86 90 145 138 157 183 189 155
73 91 87 80 76 75 81 102 141 154 158 154 142 166 147 150 134 153 159 168 184 201 163 147 141 146 138 91 145 80 114 135 83 74 121 111 140 107 153 155 164 162 188
94 99 95 75 75 78 78 103 124 97 98 65 67 91 122 114 82 82 119 134 125 119 165 169 126 113 98 135 130 203 168 141 138 78 97 76 74 134 169 164 134 121 168
134 117 110 88 93 86 83 85 91 101 91 72 75 89 119 110 94 89 110 140 131 118 108 110 135 143 116 109 113 119 129 146 98 120 54 76 29 83 73 61 115 150 115
153 127 120 99 98 78 73 84 97 104 95 75 84 79 67 60 56 74 92 97 112 133 142 125 104 93 92 81 79 109 134 138 172 140 98 71 55 36 44 72 69 97 134

GFSSE_con_3kmhel_141.txt.gz
Helicity
-20 -1 10 -1 2 15 32 38 47 56 53 56 48 44 48 60 66 69 71 68 58 53 53 49 42 33 30 35 41 38 32 26 24 26 27 41 43 45 51 55 50 41 47
73 32 31 20 25 24 34 37 44 61 66 68 60 46 46 48 52 56 59 57 57 56 60 58 47 39 36 36 40 35 27 22 25 33 35 40 47 51 43 37 51 44 48
74 45 39 37 42 39 39 42 49 67 67 67 64 57 50 50 47 48 49 52 53 56 62 55 43 36 42 43 44 35 25 19 29 27 33 32 23 38 32 37 46 51 50
65 56 56 52 50 51 46 46 49 53 56 56 61 60 52 47 49 45 45 45 51 59 59 56 46 41 44 49 54 50 36 26 27 15 19 20 10 14 21 47 54 59 51
99 98 88 77 74 68 56 49 49 48 51 50 52 53 49 47 47 47 48 44 42 51 56 57 57 52 47 41 48 58 51 35 32 15 16 16 -3 11 28 53 55 62 57
187 190 208 198 186 141 79 57 56 58 59 54 52 52 50 48 46 43 40 44 44 44 50 58 68 60 54 52 45 55 57 50 40 26 8 2 4 -7 4 57 63 78 76
207 224 234 256 229 216 177 152 101 59 55 48 45 50 47 46 49 44 46 39 37 38 40 45 52 61 59 55 53 58 62 61 48 42 24 14 9 -11 10 58 68 83 92
241 252 268 257 238 218 215 147 137 139 98 63 40 34 32 30 31 34 41 44 41 38 37 40 49 49 49 48 49 50 60 64 58 46 39 17 17 -8 37 64 61 68 95
317 297 278 265 243 221 232 245 175 145 122 112 92 74 48 29 27 26 29 29 31 34 38 42 48 56 55 51 51 45 43 65 72 66 60 49 25 23 12 71 88 91 70
318 292 276 256 250 231 210 249 218 189 172 146 104 95 87 66 52 37 27 28 25 24 28 34 41 50 56 56 57 64 55 52 80 91 90 85 47 22 9 73 107 118 87
242 229 210 213 216 214 204 220 223 213 188 177 139 116 90 88 99 87 68 53 50 40 30 33 35 33 49 59 54 71 75 85 74 91 96 81 58 54 45 69 123 129 133
235 210 167 148 156 157 158 200 223 205 159 156 151 151 136 121 115 117 122 115 90 88 80 72 60 59 66 90 95 67 90 82 85 87 91 82 59 50 61 62 112 139 139
156 160 148 133 138 148 165 176 191 205 199 193 227 217 205 213 225 211 165 143 149 166 131 115 97 94 80 92 85 86 102 103 105 89 74 70 67 40 59 71 42 112 141
185 154 145 143 147 168 161 197 215 225 225 232 243 267 260 257 276 259 231 223 191 176 163 151 140 139 137 121 98 92 86 104 120 105 98 65 98 96 84 108 118 50 86
158 124 142 164 164 133 138 127 164 185 197 223 248 259 250 264 270 265 266 242 242 224 193 135 106 109 131 137 131 109 99 86 106 119 133 112 120 131 123 139 187 147 54
172 136 126 174 158 138 137 140 134 143 162 178 198 232 256 241 225 230 220 213 210 182 177 186 176 142 138 137 131 129 115 97 90 90 125 156 135 129 132 122 134 178 105
121 127 156 162 183 168 134 120 117 119 127 139 143 175 188 205 209 203 221 208 180 188 172 133 150 136 140 146 145 123 106 105 87 82 101 125 134 103 123 108 98 300 186
142 158 164 151 154 150 131 112 108 117 124 127 123 129 160 172 181 170 175 193 181 164 175 167 135 140 132 119 120 138 121 105 92 88 101 101 109 126 87 33 11 28 132
140 158 174 158 165 153 147 121 123 127 128 127 131 136 154 166 175 146 157 175 176 159 175 176 157 138 121 122 171 150 122 122 115 105 102 87 89 95 84 66 -10 52 67
161 173 164 154 161 148 146 144 125 124 118 107 99 101 124 130 154 147 155 177 179 177 189 188 185 171 118 118 117 110 123 134 125 112 111 98 93 79 78 77 54 55 82
179 191 157 166 166 163 155 149 123 102 73 75 55 58 54 65 83 97 102 122 139 150 170 186 165 203 166 195 96 115 106 120 179 188 192 166 189 174 99 97 103 87 102
185 190 162 149 169 173 132 104 74 64 74 45 37 36 36 45 60 73 92 101 114 113 143 169 183 152 127 180 110 73 116 156 209 222 270 298 309 254 298 277 296 262 182
195 172 158 172 185 162 128 97 100 83 54 42 38 30 36 44 69 87 102 106 112 110 121 149 177 194 161 157 199 149 166 155 149 188 259 254 279 263 260 244 275 294 239
218 204 186 197 178 152 128 136 131 79 49 33 31 38 52 61 77 80 78 94 110 121 136 144 152 166 172 179 206 256 212 175 125 160 226 204 184 147 143 137 195 195 224
224 215 187 201 190 157 144 118 99 84 46 30 44 60 66 72 80 104 113 123 124 119 142 163 171 167 158 158 166 160 197 220 167 150 98 131 164 148 94 110 127 126 180
261 238 211 218 215 182 151 116 90 76 59 54 56 57 49 53 73 99 87 92 109 130 144 146 166 163 170 165 158 167 175 184 247 242 165 103 59 90 118 109 121 113 109

GFSSE_con_3kmhel_144.txt.gz
Helicity
-29 -0 8 19 28 29 42 49 46 39 41 36 47 57 69 79 79 67 65 58 56 56 56 54 51 49 48 45 42 32 26 20 14 10 19 19 24 29 34 40 35 28 50
27 39 29 31 42 41 49 59 64 51 48 50 50 58 65 70 69 66 63 61 59 59 59 55 55 54 53 54 43 35 30 19 12 11 14 18 25 26 25 30 40 33 49
79 71 61 49 57 41 53 63 62 58 55 59 53 49 53 58 58 58 57 58 58 59 64 63 63 62 67 68 56 46 39 29 19 16 21 9 -1 16 13 26 43 43 53
122 131 126 99 54 41 46 61 63 70 68 60 57 55 50 53 51 47 45 45 49 56 58 53 51 59 71 85 79 72 64 44 33 23 3 -1 -7 -1 6 26 41 48 61
200 186 183 163 137 106 92 80 66 59 63 60 64 60 55 51 47 42 37 37 38 37 43 44 47 48 54 70 77 72 70 58 53 45 28 18 -11 -13 -7 18 32 39 50
222 215 221 197 175 162 153 147 126 90 69 62 61 60 55 53 50 47 39 33 33 38 34 34 43 45 42 45 57 62 66 61 45 45 41 24 14 -6 -7 21 41 45 50
189 212 228 233 210 203 177 168 167 149 120 105 75 47 38 45 50 51 47 37 29 30 32 36 39 40 42 43 59 62 63 63 64 42 45 40 29 23 7 8 53 50 58
213 209 214 231 241 245 243 199 178 159 146 137 118 89 65 51 43 38 40 41 39 33 28 29 35 39 37 37 44 58 59 56 55 51 40 35 25 23 9 28 69 66 71
218 216 215 208 206 215 235 213 187 172 166 152 140 120 109 91 74 56 43 37 38 41 34 32 22 24 35 46 42 45 61 58 54 53 46 48 23 15 25 39 87 82 91
231 219 202 187 175 163 154 196 183 170 169 155 143 129 109 107 117 101 93 84 74 64 65 58 48 32 21 33 44 47 52 69 66 60 57 50 39 24 8 9 64 97 101
218 197 165 158 159 154 157 170 183 192 192 183 164 151 125 117 115 105 106 110 98 85 78 77 72 62 58 45 37 45 45 74 80 78 97 62 29 29 30 21 23 95 114
181 168 142 143 144 135 151 182 207 216 197 190 194 191 188 176 168 156 167 187 188 175 163 136 117 102 86 81 81 68 90 89 98 101 97 80 52 26 35 60 53 69 110
152 156 159 152 156 158 180 189 204 206 201 196 243 234 231 227 242 231 199 199 200 213 168 144 137 146 125 101 88 85 91 93 118 117 99 93 88 69 70 66 84 69 91
184 168 166 151 149 184 189 213 211 219 216 213 226 247 237 237 258 240 223 220 196 190 177 172 143 157 122 95 97 81 78 83 92 111 112 78 88 87 96 104 74 94 77
203 161 121 131 163 178 197 171 175 182 194 207 236 259 238 237 251 238 225 216 190 188 172 169 156 144 129 134 95 84 90 92 88 83 103 82 82 83 71 81 99 117 102
137 137 141 147 137 130 139 150 160 170 165 172 189 213 239 214 217 217 215 205 211 198 180 159 166 151 136 115 105 120 111 94 91 98 100 107 96 103 94 90 114 144 179
152 157 146 126 137 152 140 144 151 152 165 170 166 192 197 189 178 172 164 174 174 142 160 141 145 128 126 144 152 124 129 135 125 105 113 111 111 102 113 99 101 90 126
196 172 121 132 154 143 139 137 141 146 148 149 149 149 167 165 159 139 137 151 152 133 125 126 107 107 108 106 116 124 112 118 115 117 126 118 123 109 97 74 68 77 50
198 171 167 167 183 166 159 162 167 167 156 131 130 127 128 116 113 76 80 88 77 69 81 88 96 79 74 84 96 110 112 127 114 115 120 147 143 121 103 80 74 55 59
211 204 184 178 205 192 163 143 143 148 130 111 87 71 66 54 57 40 44 54 46 35 48 55 59 74 39 62 65 68 85 108 125 132 159 170 185 169 131 101 98 77 40
252 214 171 176 197 166 145 128 128 110 93 85 64 59 53 50 49 50 36 46 51 51 61 68 48 71 50 88 53 95 104 123 166 208 248 286 298 261 256 249 213 221 197
271 229 198 191 203 146 135 124 93 79 79 47 37 43 48 54 59 57 54 49 49 38 60 61 63 46 53 98 35 29 106 143 185 209 220 274 301 249 245 277 264 272 263
291 250 203 192 206 161 163 182 163 101 64 57 56 39 39 29 31 29 25 22 27 20 41 61 95 109 102 130 197 146 144 179 172 172 215 200 221 207 192 238 288 237 259
317 283 224 220 229 187 145 142 103 87 82 61 38 23 29 40 34 23 15 17 12 19 53 81 103 111 124 132 162 220 201 160 129 145 178 154 132 147 96 204 201 232 212
364 323 270 254 239 199 199 191 187 171 103 53 42 47 43 28 24 16 22 23 29 28 42 69 94 118 124 142 151 142 171 187 164 162 78 78 19 75 40 142 93 107 186
444 384 294 271 246 212 197 177 169 144 109 82 56 47 35 25 43 73 74 70 58 58 54 47 67 109 129 147 156 159 148 145 182 146 89 61 -14 -57 64 115 56 48 95

GFSSE_con_3kmhel_150.txt.gz
Helicity
51 47 19 7 4 -3 -16 -4 5 13 42 54 57 60 56 53 56 55 50 41 35 35 37 35 26 31 33 24 18 7 3 4 5 13 20 25 25 20 13 -12 -32 23 12
93 88 58 36 25 24 19 5 20 18 32 42 45 54 58 56 53 50 43 39 36 38 35 29 30 35 35 27 17 8 2 0 4 7 17 24 19 14 10 -19 -33 57 23
141 89 71 54 45 44 67 51 40 37 48 50 54 59 60 55 52 46 41 34 29 33 39 44 37 39 37 31 25 19 14 6 13 4 -6 11 35 15 14 2 16 28 20
133 96 81 74 71 73 62 93 84 82 83 70 58 55 57 51 52 47 46 36 30 32 37 41 38 42 46 37 31 22 20 15 11 6 21 5 28 22 23 23 24 30 30
166 120 112 107 99 105 108 101 100 101 97 85 90 78 63 60 51 52 46 40 37 36 42 45 43 47 46 37 30 23 21 16 10 12 9 3 11 51 20 26 31 27 16
156 136 145 139 145 144 148 130 124 120 108 101 97 95 81 76 67 64 51 47 45 42 40 46 56 51 50 46 38 29 24 17 3 6 6 16 -14 54 23 30 0 25 20
126 120 126 151 149 159 160 143 140 138 124 114 104 100 95 81 73 72 65 61 54 50 48 49 59 63 58 56 50 44 41 33 6 19 10 9 3 32 19 26 21 34 38
109 101 104 131 141 156 158 154 152 147 146 141 131 115 104 89 86 83 83 75 64 58 55 49 57 69 66 55 47 49 50 40 39 20 29 26 69 34 13 17 20 31 48
68 74 81 85 106 148 167 163 169 170 173 178 168 149 136 123 108 95 89 79 77 64 63 56 57 65 67 60 46 42 37 40 15 23 26 37 113 57 30 22 16 34 46
70 79 76 74 72 74 103 167 190 198 197 190 184 162 144 125 119 118 108 120 105 78 73 73 65 68 62 69 57 39 28 36 27 20 41 37 90 60 46 41 38 48 66
76 76 69 67 67 70 77 97 111 147 165 148 156 192 155 168 162 188 220 184 164 118 100 86 80 80 64 59 58 61 65 49 35 31 44 124 90 50 34 41 45 52 57
81 73 65 67 69 68 75 92 115 137 168 183 178 193 189 215 240 209 210 204 202 163 146 133 117 88 58 62 73 70 68 55 49 42 36 91 77 50 40 48 54 54 56
83 75 79 76 70 69 88 95 110 133 142 166 204 201 218 218 227 222 213 210 195 207 162 127 112 119 129 106 87 72 70 59 57 57 45 61 66 46 33 25 45 56 60
96 97 90 91 90 81 84 117 135 162 173 168 182 192 177 202 227 237 235 234 220 225 205 206 188 160 136 141 141 139 131 117 112 100 82 75 48 39 27 29 22 34 61
127 116 111 100 91 99 116 131 158 168 183 180 175 196 184 182 198 202 209 210 204 194 197 176 166 155 155 148 138 138 132 121 110 96 99 91 62 60 67 67 44 34 44
145 135 126 120 123 121 140 147 156 172 164 169 170 168 170 166 166 170 176 183 183 175 162 168 157 149 130 113 93 95 90 90 85 90 84 84 83 78 85 106 110 104 74
160 156 158 150 132 132 142 140 146 151 145 150 147 165 163 154 148 148 152 157 152 136 126 115 111 93 87 69 63 58 52 46 57 69 72 79 77 63 66 106 131 131 137
211 181 173 150 126 149 155 141 155 151 134 136 124 128 144 145 137 126 127 135 133 123 119 111 110 104 90 83 77 75 76 74 83 77 77 92 111 119 146 179 179 173 182
239 217 173 147 136 176 154 148 148 141 121 128 123 120 129 134 133 125 124 120 105 93 94 94 85 85 75 72 61 53 60 72 81 98 126 137 198 201 165 147 162 204 264
284 226 183 144 143 173 153 144 129 132 116 116 116 110 109 113 114 103 104 107 95 93 92 89 78 72 64 64 55 56 65 82 117 143 166 174 200 216 211 198 161 151 177
285 253 197 169 145 159 136 119 123 129 121 118 117 110 105 100 102 94 88 87 78 84 78 75 62 70 70 73 58 72 63 90 125 138 168 186 223 219 254 271 243 203 154
284 251 210 169 158 144 144 132 141 147 143 128 115 118 110 105 100 94 85 83 86 73 84 86 89 69 63 73 64 21 64 43 114 119 143 177 223 233 254 266 275 274 226
307 282 236 194 168 157 181 175 183 184 145 121 105 106 111 107 102 100 100 95 91 86 82 85 84 82 51 36 50 60 60 129 140 113 116 161 199 210 195 192 195 202 201
337 317 270 232 191 171 160 174 164 170 170 155 129 119 116 113 113 111 112 109 105 88 88 74 65 50 37 50 9 46 60 79 96 135 175 204 179 167 187 187 135 125 179
363 338 318 258 205 183 173 180 199 221 214 167 145 130 129 128 129 126 120 107 93 75 72 60 47 44 40 40 47 45 52 44 104 80 84 133 157 146 164 153 249 172 138
337 328 320 275 229 210 204 207 216 231 208 189 158 140 132 125 123 121 109 108 97 80 71 68 65 78 72 73 75 100 114 117 152 142 142 146 116 85 157 272 342 257 218

GFSSE_con_3kmhel_156.txt.gz
Helicity
234 160 102 74 61 50 31 15 12 14 16 20 28 18 22 25 35 38 43 35 20 19 11 10 -4 -6 -2 -2 -3 -3 3 2 2 8 15 16 18 20 9 -15 -33 37 17
260 179 108 84 68 56 41 34 22 13 32 34 44 45 40 39 40 42 39 44 35 23 15 13 13 2 3 1 -2 -7 -6 -1 3 5 6 2 5 16 11 4 8 41 26
219 174 110 86 69 57 52 45 40 34 33 49 44 65 63 61 55 46 43 43 42 35 20 20 22 16 12 11 2 -8 -14 -5 -11 -1 13 -6 12 23 23 28 47 35 26
117 179 119 78 67 62 58 50 48 51 34 62 63 67 70 70 67 63 52 51 44 45 39 26 29 23 21 21 13 1 -12 1 6 8 -6 8 26 20 38 37 33 32 27
88 191 147 88 74 65 62 65 60 62 57 69 76 78 76 72 72 74 70 63 56 54 49 37 35 28 23 21 18 7 -5 5 -9 -5 37 39 72 44 39 46 41 32 16
327 156 129 91 75 60 62 63 68 70 60 75 86 81 78 76 79 82 80 69 63 59 59 42 41 39 25 14 14 7 -7 -24 -14 38 29 56 85 67 39 36 16 31 43
202 95 123 103 87 77 65 72 74 75 70 85 91 92 87 85 85 84 79 75 71 67 61 59 52 45 34 14 6 -1 -12 -25 -9 54 37 57 130 83 61 55 38 36 43
141 141 122 125 122 111 89 88 86 96 85 96 91 94 96 91 89 84 81 76 74 66 62 56 55 48 46 26 10 -1 -14 -10 2 32 26 109 140 114 85 69 45 43 42
138 123 119 117 133 144 132 108 99 108 102 102 95 92 94 88 84 80 83 75 69 68 71 61 65 45 51 47 25 14 1 -5 3 9 6 21 136 116 85 59 49 41 36
121 97 116 116 98 102 115 121 114 98 93 100 99 91 82 90 81 76 82 79 76 71 70 68 67 55 45 43 34 30 16 2 20 9 22 41 76 74 56 35 44 40 32
107 115 107 111 120 95 78 85 84 74 64 75 82 86 88 121 101 131 175 149 130 104 86 72 73 65 49 40 40 43 40 35 33 60 34 81 101 82 43 48 50 43 34
116 113 106 112 97 48 62 49 62 70 74 113 138 132 191 204 223 215 157 141 131 110 94 84 71 58 61 53 81 59 63 45 31 19 20 104 67 60 71 54 49 61 52
123 108 120 119 93 40 117 40 28 36 80 126 158 180 165 180 207 204 186 169 133 108 111 103 81 67 74 77 89 78 65 58 52 56 51 92 111 115 114 85 70 63 42
158 161 149 130 121 138 150 93 161 172 161 102 157 145 145 159 190 195 198 189 193 178 187 162 177 164 150 152 140 107 100 97 130 151 103 157 128 122 83 81 94 107 110
191 201 152 186 190 183 168 215 212 163 203 200 155 151 181 151 144 146 139 139 142 163 166 165 179 157 136 142 139 137 135 156 149 147 167 131 86 53 89 104 100 92 132
215 225 207 184 200 189 247 226 215 225 171 203 211 183 207 204 155 113 113 125 100 146 183 168 168 156 160 155 124 128 143 121 122 123 129 145 150 198 163 143 157 155 143
242 219 216 239 211 247 239 200 182 136 161 198 183 188 205 204 167 177 216 224 225 157 137 147 123 115 111 117 117 137 106 87 101 123 95 87 98 165 130 125 138 142 168
254 245 221 225 229 235 214 215 208 160 200 186 169 178 183 185 169 173 195 211 156 144 165 184 157 145 157 141 122 103 111 103 91 59 97 181 207 162 96 82 100 121 179
251 312 261 261 248 260 246 246 234 185 181 179 152 152 172 176 194 208 195 144 144 135 142 152 150 118 125 109 94 79 71 66 70 141 158 134 148 190 182 103 120 117 133
264 325 289 291 279 310 278 296 229 217 218 186 183 151 161 172 170 154 148 130 126 131 114 118 112 99 88 86 81 63 70 98 126 124 197 214 102 85 114 143 50 14 69
293 336 305 283 338 354 338 282 265 233 219 225 212 173 175 174 179 166 118 117 131 126 114 118 106 97 96 99 102 82 65 105 102 163 140 144 145 70 57 90 112 109 63
375 325 286 267 294 284 279 254 230 241 213 217 202 195 188 182 179 176 150 148 130 111 120 129 137 119 86 110 104 82 110 108 86 110 100 104 97 98 93 43 111 144 146
491 408 334 269 235 216 228 259 332 369 358 281 230 207 209 209 211 196 190 159 165 135 130 136 150 158 113 87 132 126 141 194 113 123 208 220 207 138 231 326 362 306 197
534 554 417 285 262 224 248 294 343 334 273 203 193 263 241 239 239 220 196 188 190 175 149 137 159 161 178 137 114 144 156 163 198 193 258 233 149 143 248 242 240 242 230
510 491 386 307 280 239 273 370 327 247 205 232 301 281 252 255 234 224 207 191 184 177 187 191 204 207 207 169 174 167 182 171 170 171 156 182 149 205 265 168 164 138 126
406 326 306 253 291 292 266 336 265 181 258 356 340 264 270 272 274 252 231 210 193 201 187 176 186 228 217 238 176 211 198 173 128 128 117 122 112 196 193 166 129 83 48

GFSSE_con_3kmhel_159.txt.gz
Helicity
162 113 104 93 76 51 30 22 22 27 21 22 16 27 33 27 28 31 30 28 29 25 16 8 -1 -2 -1 5 -3 1 7 16 25 20 18 27 32 30 18 -8 18 17 10
171 129 145 128 100 73 46 30 24 26 20 32 37 32 44 44 34 37 40 34 24 25 22 13 9 3 -0 -2 -9 -8 -3 5 5 10 19 11 11 15 8 -0 45 14 9
170 153 158 154 115 88 58 38 30 29 25 32 45 41 39 56 49 37 41 43 34 30 28 25 19 12 4 -8 -6 -6 -6 -1 -27 -3 13 -9 -1 20 33 54 35 29 19
171 171 167 154 125 93 68 53 39 34 36 30 41 46 42 54 53 53 46 47 40 34 32 35 29 21 12 -4 -9 -8 -2 2 -33 -20 7 -19 6 22 48 46 40 38 35
205 215 206 155 116 91 75 59 53 44 40 40 36 46 55 54 55 54 49 45 46 44 34 34 41 28 19 7 -7 -14 -9 -3 -12 14 25 36 40 28 61 61 44 37 35
214 217 194 143 108 91 79 68 57 48 41 46 42 43 60 58 58 54 54 47 46 45 43 34 39 41 24 16 -1 -6 -3 -15 -18 -22 13 16 62 49 55 57 57 46 29
180 208 171 136 109 95 86 82 70 64 59 56 48 47 62 60 63 61 61 55 51 54 51 46 42 35 29 18 12 -3 -2 3 7 24 47 25 75 88 61 60 50 49 44
199 184 168 151 116 102 96 86 88 86 74 67 55 57 66 67 66 65 59 59 57 63 59 50 44 35 25 14 13 11 4 13 15 22 27 8 74 83 56 48 57 57 55
172 197 194 163 134 133 109 100 111 98 93 84 73 75 72 68 68 70 63 58 51 54 66 63 54 43 24 22 12 13 5 11 22 19 36 23 65 60 51 49 38 50 51
156 171 173 151 139 136 127 112 109 113 111 92 96 86 82 75 72 70 64 62 60 55 58 60 63 51 35 28 22 8 11 19 14 21 25 41 65 74 55 51 42 40 38
148 160 154 139 135 131 122 117 115 108 96 101 97 102 123 130 80 124 133 111 98 79 64 64 63 58 45 32 22 18 18 27 12 20 39 37 70 71 62 30 27 31 33
168 154 132 119 127 126 116 105 96 98 91 97 112 150 175 188 197 174 155 141 118 102 90 72 65 56 53 55 52 43 57 30 34 43 40 56 57 67 67 52 39 38 32
171 151 140 128 104 132 133 100 97 91 108 132 154 158 160 186 197 196 183 163 146 115 111 106 103 92 77 84 72 71 64 66 90 99 79 75 73 84 133 128 114 97 102
208 153 157 112 111 111 118 110 105 113 135 151 139 139 138 150 175 192 177 173 182 187 175 167 166 118 119 144 152 130 106 133 161 163 147 195 192 164 168 133 138 129 126
199 192 190 174 154 148 175 207 202 202 195 172 162 160 135 140 133 158 154 147 144 156 171 185 180 180 171 183 170 154 153 151 153 153 163 189 194 202 199 174 150 148 140
253 262 232 200 194 220 275 290 310 303 280 265 221 206 219 160 129 121 150 153 168 174 182 185 157 158 156 164 162 163 144 131 149 168 131 158 183 207 190 201 213 202 197
368 323 283 237 221 271 310 316 296 266 281 259 200 194 235 215 201 196 203 215 179 146 168 176 175 170 176 183 199 185 162 145 132 157 117 138 228 253 213 201 189 185 201
512 415 343 279 287 301 288 282 273 271 265 216 189 201 215 216 221 248 255 238 211 161 143 165 158 163 179 182 175 155 128 124 123 146 217 230 146 101 110 105 99 87 127
530 462 424 341 297 270 271 282 280 269 260 215 193 188 198 197 239 264 227 207 196 165 150 144 137 116 132 127 124 121 112 99 134 189 187 163 82 -3 -10 55 65 82 107
578 545 421 329 273 262 292 298 290 282 259 228 207 181 188 188 213 216 192 210 195 171 149 134 122 116 88 79 74 72 109 134 200 175 126 75 64 55 1 21 18 83 117
690 712 562 413 296 304 332 333 309 281 264 286 236 191 189 184 209 186 190 223 197 169 134 130 117 111 114 94 108 141 141 150 152 142 127 98 86 96 208 173 133 38 29
743 773 689 552 418 337 313 274 263 245 255 260 239 220 191 192 232 203 209 222 184 177 168 165 160 128 105 124 123 175 166 194 242 226 255 246 212 216 223 208 204 132 100
690 705 658 580 485 397 309 310 316 342 380 327 280 234 205 200 239 248 219 234 207 202 189 182 189 176 127 142 173 145 160 150 269 305 300 218 208 194 186 191 173 136 99
623 635 644 557 408 279 250 285 343 416 386 283 225 205 222 227 246 263 248 266 252 211 219 227 230 211 172 178 182 225 219 196 255 240 304 225 152 163 168 176 176 161 113
612 634 556 425 294 214 212 289 394 395 353 305 281 253 240 236 232 264 275 280 280 261 247 256 280 299 248 212 198 187 194 231 284 257 242 213 186 173 158 116 68 38 54
429 443 381 259 201 194 204 290 390 382 318 355 332 302 251 233 245 272 297 275 281 264 251 265 277 299 271 235 218 239 206 169 199 208 209 176 184 197 153 117 98 54 23

GFSSE_con_3kmhel_162.txt.gz
Helicity
11 50 39 81 83 70 60 49 43 28 29 30 28 31 50 64 73 65 59 51 40 35 34 27 19 10 6 8 -0 7 10 19 9 9 18 27 24 17 15 11 24 17 14
106 70 78 96 84 75 59 43 45 39 34 29 34 32 32 43 56 59 50 43 37 34 34 32 22 16 18 19 -2 -0 10 4 -4 1 10 21 12 1 7 18 17 15 22
151 107 105 107 104 85 62 49 51 46 40 29 28 36 29 25 44 44 47 43 43 40 35 28 26 21 25 30 14 7 9 -2 -2 6 12 -20 -6 17 44 30 24 26 29
168 150 140 122 120 106 72 51 48 48 39 41 30 33 32 26 32 38 37 38 36 36 38 33 25 23 18 30 31 18 19 11 16 2 -15 -26 -12 11 49 44 36 33 29
181 162 153 146 129 120 88 62 51 55 39 40 40 35 34 24 29 36 36 33 31 31 29 33 28 16 14 15 41 25 27 22 19 11 3 -1 -20 12 42 45 36 35 39
176 186 176 162 134 122 94 78 68 57 46 43 43 44 42 28 35 38 39 37 35 26 27 27 29 25 10 6 15 37 28 21 13 4 17 5 33 41 42 43 38 37 28
228 212 195 173 137 123 110 96 85 81 59 50 49 47 48 38 43 44 44 42 38 30 29 32 30 25 21 8 7 21 28 20 15 16 20 6 52 26 28 49 39 40 43
232 193 195 149 134 128 115 106 102 93 78 67 65 61 56 49 52 54 54 49 51 47 36 39 26 20 21 18 11 15 28 29 28 24 34 21 42 28 55 44 52 45 41
191 204 210 168 150 135 120 106 106 96 96 84 83 75 69 67 67 67 71 64 57 58 53 42 41 20 13 20 19 17 23 40 33 40 33 24 24 52 52 42 36 37 38
182 213 220 201 165 149 125 118 118 111 109 98 104 98 89 90 83 84 84 81 75 66 58 48 46 36 26 26 27 23 21 29 32 42 44 43 9 29 48 38 26 31 28
180 183 201 194 163 151 145 123 126 125 122 118 116 106 113 112 110 129 95 78 80 76 75 61 50 49 47 37 30 23 25 34 33 51 78 75 33 50 76 50 34 25 26
221 170 169 175 164 166 146 140 133 135 132 127 126 127 143 150 158 156 148 141 137 121 108 90 68 77 69 64 57 48 50 50 66 82 79 75 46 61 70 57 64 71 78
188 176 169 164 151 151 152 146 149 142 148 130 131 135 148 158 176 173 171 170 168 145 126 109 104 103 100 96 85 85 87 97 114 113 131 144 135 130 127 149 153 145 131
238 189 169 154 147 133 163 154 149 160 161 143 130 138 144 146 166 167 179 178 174 177 188 176 163 137 121 137 136 129 116 144 143 174 240 241 253 216 208 205 186 166 148
222 207 199 174 142 147 168 164 168 166 147 145 149 139 133 135 138 137 154 163 168 167 167 173 159 166 161 175 172 159 153 153 175 203 210 255 267 244 222 189 183 202 190
197 229 232 192 170 171 179 172 161 168 171 169 160 158 156 149 130 117 136 154 170 165 176 178 160 148 151 152 171 158 165 162 167 222 244 269 263 264 273 222 253 181 168
221 288 250 240 248 223 228 228 240 249 231 204 181 180 180 172 149 132 130 171 179 176 177 163 170 167 168 154 176 169 150 153 171 200 213 217 238 224 190 183 175 165 177
323 325 344 292 314 313 275 261 256 235 204 185 177 172 189 193 193 204 191 201 178 168 163 176 145 177 183 181 177 166 165 161 191 191 166 157 149 139 175 162 149 125 130
408 484 511 349 328 347 330 297 261 220 196 181 177 175 179 180 203 212 194 214 199 183 178 166 164 157 157 162 160 152 176 158 177 160 133 96 79 81 112 162 160 133 133
539 567 564 447 382 364 403 409 342 266 228 203 188 175 174 182 188 190 187 199 185 184 178 172 157 174 140 128 135 160 184 197 164 134 123 150 138 126 100 106 97 109 158
603 639 549 561 482 494 453 483 436 318 248 221 195 180 186 195 179 164 175 185 187 169 149 148 170 150 154 118 164 292 308 307 283 268 230 236 208 191 179 140 89 58 47
651 636 586 521 477 411 367 341 326 345 294 282 255 239 199 206 206 173 179 176 169 169 156 148 164 161 151 136 176 301 287 290 340 285 261 249 251 209 189 150 89 51 26
678 665 622 557 436 379 312 313 290 337 349 333 299 224 199 218 238 211 188 175 167 161 162 152 158 151 162 206 221 225 279 250 327 297 308 279 254 224 191 158 132 100 67
747 650 576 511 389 251 239 229 238 268 334 297 229 213 214 228 257 246 213 194 195 189 191 175 172 155 184 216 289 253 257 255 291 286 315 309 271 237 172 110 56 37 32
678 592 497 333 245 168 152 187 204 254 298 269 281 259 222 203 227 233 234 226 220 224 219 216 218 225 212 185 193 245 297 365 315 320 318 310 330 267 187 112 70 51 39
306 278 243 190 90 124 167 160 189 248 309 287 266 243 213 183 198 229 212 223 218 242 258 247 240 243 246 244 230 219 226 277 296 300 338 322 267 233 157 123 64 23 8

GFSSE_con_3kmhel_165.txt.gz
Helicity
-44 -11 12 24 60 83 89 92 82 69 63 53 57 71 83 90 73 68 62 56 52 49 42 37 28 19 17 19 16 5 5 -1 -4 -6 -4 7 7 8 7 18 15 8 16
82 27 12 45 68 87 91 88 83 69 67 61 58 61 58 62 56 64 64 56 53 50 49 43 33 26 22 18 13 11 9 6 4 -6 -9 -7 -1 10 17 12 13 12 22
114 60 30 56 81 91 90 83 75 70 65 56 57 60 56 59 58 45 64 55 47 43 44 47 46 37 31 25 13 20 15 15 2 2 -7 -12 -12 16 29 21 17 26 26
114 85 53 67 73 78 81 73 70 63 63 58 53 52 52 51 52 32 53 51 43 39 38 41 46 44 41 31 25 23 29 23 19 -3 -5 -12 -9 4 31 30 24 16 14
135 101 90 98 83 79 84 67 64 59 59 59 53 53 52 51 51 32 44 47 43 38 32 30 33 35 43 40 34 21 25 31 15 0 -3 -12 -5 -2 21 33 26 25 16
153 124 123 127 114 95 93 79 63 60 61 58 57 58 55 51 52 40 41 47 44 39 36 29 24 23 29 44 39 31 29 31 16 3 8 -3 16 23 6 14 28 27 23
200 163 163 156 137 116 106 100 77 72 62 58 57 67 65 60 55 49 42 51 50 43 36 36 30 22 21 32 40 34 37 33 23 19 20 20 7 37 26 14 23 29 32
251 216 195 179 151 127 120 107 95 87 74 72 66 69 73 70 62 57 50 55 62 60 56 42 34 28 22 25 36 39 38 41 40 39 31 14 12 26 28 31 37 22 29
229 253 226 186 158 134 125 112 103 99 99 88 80 81 83 79 75 67 63 69 73 73 69 53 44 34 26 23 31 36 46 58 42 41 44 25 11 13 10 23 25 28 20
199 195 210 204 180 151 134 120 116 114 109 108 102 101 106 93 90 85 81 82 83 82 77 63 55 49 49 41 37 34 41 71 57 41 51 56 32 15 29 31 22 16 25
199 193 194 216 196 170 145 130 129 126 124 124 125 122 117 105 101 98 94 95 98 97 87 77 62 58 57 63 49 40 49 54 60 72 68 78 76 43 80 66 51 55 67
199 187 193 204 204 186 159 154 142 141 136 135 134 127 121 109 114 118 131 129 116 105 89 86 86 72 76 74 80 65 73 82 78 90 92 104 104 152 151 128 114 125 146
203 188 192 170 178 194 176 176 161 151 148 139 134 130 125 129 139 131 139 154 136 136 156 134 106 97 102 86 88 95 89 110 115 146 164 165 221 210 210 198 168 139 148
193 168 187 178 201 184 181 173 152 156 144 139 127 123 126 128 134 133 144 155 164 161 168 159 135 151 123 113 104 95 122 104 133 165 182 266 270 213 188 163 167 175 200
204 191 182 199 217 212 198 180 167 153 140 132 130 120 108 103 105 109 125 135 146 139 140 152 157 157 160 163 161 165 181 182 195 183 201 253 238 190 159 174 161 179 196
217 216 218 223 227 244 216 197 172 154 150 142 134 107 89 95 99 97 110 122 123 135 151 136 128 152 146 158 163 146 125 138 169 206 228 273 305 299 285 252 193 202 137
217 242 270 234 277 302 247 211 188 167 157 152 134 118 109 105 102 107 113 123 121 133 154 155 152 144 173 167 195 197 157 146 193 200 216 187 239 255 242 202 224 198 152
251 270 253 280 316 357 261 231 218 208 198 182 155 133 124 125 121 115 120 119 119 133 137 148 145 164 177 176 206 220 182 217 177 182 211 212 235 242 230 191 168 147 170
327 296 317 332 409 322 258 275 276 276 261 225 183 158 154 154 140 145 155 149 141 129 130 124 128 122 160 200 217 232 214 192 185 205 227 237 210 192 168 186 170 153 157
336 309 361 401 383 381 360 351 344 319 283 239 193 168 170 173 176 179 177 168 157 146 142 137 131 132 124 185 255 292 305 300 310 294 234 207 201 197 163 156 158 160 165
359 344 414 480 449 408 366 351 326 276 221 219 214 203 202 197 192 195 187 173 164 147 129 151 154 150 150 163 261 359 385 376 378 329 320 274 239 198 202 187 159 147 135
441 412 440 515 482 401 358 269 199 197 160 159 182 207 206 196 187 178 168 169 169 166 149 142 149 163 163 178 230 334 302 273 334 315 299 262 258 224 210 170 133 111 84
501 488 519 547 508 322 190 168 158 203 181 209 219 186 166 163 159 157 163 154 155 160 129 125 131 142 167 191 216 252 287 235 334 289 317 293 270 246 200 148 117 89 63
534 537 579 569 427 259 176 155 149 166 161 149 139 124 132 120 121 123 138 152 154 141 131 126 121 150 171 187 259 285 272 248 294 287 341 352 320 268 224 186 138 99 70
545 533 470 377 239 135 90 117 155 172 168 140 155 138 114 107 105 117 119 134 152 155 146 135 124 114 147 172 242 304 306 306 322 307 318 363 394 319 256 210 166 118 78
185 170 185 133 67 106 90 90 118 145 152 161 159 152 143 132 123 144 159 159 154 155 136 133 142 149 138 166 192 229 242 276 300 290 304 361 319 280 246 191 152 116 89